Regional Weather Roundup
Issued by NWS

Home | Current Version | Previous Version | Text Only | Print | Product List | Glossary Off
Versions: 1 2 3 4 5 6 7 8 9 10 11 12 13 14 15 16 17 18 19 20 21 22 23 24 25 26 27

000
ASUS45 KPSR 260810
RWRAZ

ARIZONA HOURLY REGIONAL WEATHER ROUNDUP
NATIONAL WEATHER SERVICE PHOENIX AZ
100 AM MST MON SEP 26 2016

NOTE: FAIR INDICATES FEW OR NO CLOUDS BELOW 12,000 FEET WITH NO
SIGNIFICANT WEATHER AND/OR OBSTRUCTIONS TO VISIBILITY.

AZZ001>003-036-260900-
NORTHWEST ARIZONA

CITY           SKY/WX    TMP DP  RH WIND       PRES   REMARKS
BULLHEAD CITY  CLEAR     84  32  15 N17       30.02S
KINGMAN        CLEAR     60  32  34 E7        30.21R
$$

AZZ004>008-015-016-018-260900-
NORTH CENTRAL ARIZONA

CITY           SKY/WX    TMP DP  RH WIND       PRES   REMARKS
GRAND CANYON   CLEAR     57  28  33 NE13      30.42S
PRESCOTT       PTCLDY    57  36  45 W8        30.28S
FLAGSTAFF      PTCLDY    54  29  38 NE12      30.42S
PAYSON         CLOUDY    66  30  26 NE10      30.29S
PAGE           CLEAR     60  33  36 SW5       30.34R
$$

AZZ009>014-017-260900-
NORTHEAST ARIZONA

CITY           SKY/WX    TMP DP  RH WIND       PRES   REMARKS
WINSLOW        PTCLDY    58  30  34 NW10      30.33R
SAINT JOHNS    PTCLDY    57  35  43 E3        30.35R
WINDOW ROCK    CLEAR     44  30  57 SW5       30.45R
SHOW LOW       MOCLDY    54  28  37 CALM      30.36S
$$

AZZ023-260900-
GREATER PHOENIX AREA

CITY           SKY/WX    TMP DP  RH WIND       PRES   REMARKS
PHOENIX        MOCLDY    81  39  22 E6        29.95R
BUCKEYE        CLOUDY    75  36  23 CALM      29.96S
LUKE AFB       PTCLDY    78  38  23 NW7       29.95R
DEER VALLEY    MOCLDY    80  31  16 NE9       29.98R
SCOTTSDALE     MOCLDY    85  31  14 NE5       29.99R
MESA-GATEWAY   MOCLDY    77  34  20 E9        30.00R
$$

AZZ027-028-260900-
SOUTHWEST MARICOPA COUNTY AND PINAL COUNTY

CITY           SKY/WX    TMP DP  RH WIND       PRES   REMARKS
CASA GRANDE    PTCLDY    73  36  25 CALM      30.00R
GILA BEND      FAIR      72  31  22 SE9       29.92R
$$

AZZ503-504-507>509-260900-
SOUTHEAST ARIZONA

CITY           SKY/WX    TMP DP  RH WIND       PRES   REMARKS
TUCSON         PTCLDY    77  45  32 SE16G26   30.09R
DAVIS-MONTHAN  CLEAR     75  45  33 E16G23    30.09R
NOGALES        PTCLDY    60  46  59 NW3       30.14R
SIERRA VISTA   PTCLDY    61  43  52 SE9       30.22R
DOUGLAS        LGT RAIN  63  54  72 E16       30.21R
SAFFORD        CLOUDY    74  46  36 E13       30.18R
$$

AZZ020-021-025-026-031-260900-
SOUTHWEST ARIZONA

CITY           SKY/WX    TMP DP  RH WIND       PRES   REMARKS
YUMA           CLEAR     82  35  18 N9        29.89S
$$

CAZ031-033-041-043-047-048-061-260900-
SOUTHERN CALIFORNIA

CITY           SKY/WX    TMP DP  RH WIND       PRES   REMARKS
DOWNTOWN L.A.  CLEAR     71  49  45 CALM      29.93S
L.A. AIRPORT   CLEAR     80  40  23 VRB5      29.93S
SAN DIEGO      CLEAR     75  52  44 CALM      29.92F
BURBANK        CLEAR     76  29  17 CALM      29.97S
ONTARIO        CLEAR     83  23  11 E5        29.98F
RIVERSIDE      CLEAR     75  30  19 NE8       29.99S
PALM SPRINGS   CLEAR     84  33  16 W8        29.97F
EL CENTRO NAS  CLEAR     75  36  24 W5        29.91S
IMPERIAL       CLEAR     78  45  30 NW5       29.88F
BLYTHE         CLEAR     83  33  16 N13       29.94S
NEEDLES        CLEAR     82  32  16 N10       30.02S
$$

NVZ020-UTZ003-260900-
SOUTHERN NEVADA-UTAH

CITY           SKY/WX    TMP DP  RH WIND       PRES   REMARKS
LAS VEGAS      CLEAR     77  24  14 CALM      30.16S
SALT LAKE CITY CLEAR     52  44  74 SE6       30.43S
$$

NMZ009-TXZ055-260900-
NEW MEXICO-WEST TEXAS

CITY           SKY/WX    TMP DP  RH WIND       PRES   REMARKS
ALBUQUERQUE    CLEAR     58  34  40 E16       30.42S
EL PASO        CLOUDY    64  41  42 NE10      30.27S
$$


........................KEY........................
SKY/WX - SKY CONDITION/WEATHER
TMP    - TEMPERATURE IN FAHRENHEIT
DP     - DEW POINT IN FAHRENHEIT
RH     - RELATIVE HUMIDITY IN PERCENT
WIND   - DIRECTION AND SPEED IN MILES PER HOUR (MPH)
VRB    - VARIABLE WIND DIRECTION
PRES   - MEAN SEA LEVEL PRESSURE IN INCHES OF MERCURY
         F - FALLING PRESSURE   R - RISING PRESSURE
         S - STEADY PRESSURE
VSB    - VISIBILITY IN MILES
HX     - HEAT INDEX IN FAHRENHEIT
WCI    - WIND CHILL INDEX IN FAHRENHEIT
TC     - TEMPERATURE IN CELSIUS WHICH IS ALSO KNOWN AS
         TEMPERATURE IN CENTIGRADE
AFB    - AIR FORCE BASE
         LUKE AFB IS LUKE AIR FORCE BASE
         DAVIS-MONTHAN IS DAVIS-MONTHAN AIR FORCE BASE
NAS    - NAVAL AIR STATION
         EL CENTRO NAS IS EL CENTRO NAVAL AIR STATION
N/A    - NOT AVAILABLE





USA.gov is the U.S. government's official web portal to all federal, state and local government web resources and services.